User: anonymous   Login
Location: Young's Pond
(41.2695°N, 72.7766°W)
Time: 08:21:48
(UTC-04:00)
Language:

CZ-4B R/B - Orbit

View from above orbital plane
View from above orbital plane
View from above satellite
View from above satellite

Ground track
Ground track

The orbit data is extracted from the following two-line orbital elements,

1 29093U 06015B   16125.20412472  .00005388  00000-0  14260-3 0  9992
2 29093  97.4824 221.7851 0069417 346.2810  13.6545 15.36372330554669
Epoch (UTC): 04 May 2016 04:53:56
Eccentricity: 0.0069417
inclination: 97.4824°
perigee height: 409 km
apogee height: 504 km
right ascension of ascending node: 221.7851°
argument of perigee: 346.2810°
revolutions per day: 15.36372330
mean anomaly at epoch: 13.6545°
orbit number at epoch: 55466

The dashed part of the orbit path shows where the satellite is in the earth's shadow,  

DLR